
NAKANO
         **** Don't distribute anyone except personal use only ****
                (C) Copyright 2008 OAA/ComputingSection
write mail from CFAD0::NAKANO on 2008-12-18 03:31:25(JST).
 

    C/2008 J6 (Hill)

Epoch 2008 Apr. 4.0 TT = JDT 2454560.5  

T 2008 Apr. 10.94329 TT                                 Nakano

q   2.0035006            (2000.0)            P               Q

z  -0.0011288      Peri.   10.70332     +0.57978745     +0.52489369

 +/-0.0000082      Node   298.17818     -0.78999188     +0.17497778

e   1.0022616      Incl.   44.98722     -0.19939747     +0.83298823

From 347 observations 2008 May 14-Sept. 26, mean residual 0".63.

   (1/a)org.= +0.000011, (1/a)fut.= -0.000494 (+/-0.000008), Q= 6.



NAKANO

         **** Don't distribute anyone except personal use only ****

                (C) Copyright 2008 OAA/ComputingSection

write mail from CFAD0::NAKANO on 2008-10-05 06:57:03(JST).



    C/2008 J6 (Hill)

Epoch 2008 Apr. 4.0 TT = JDT 2454560.5  

T 2008 Apr. 10.94138 TT                                 Nakano

q   2.0034764            (2000.0)            P               Q

z  -0.0011358      Peri.   10.70211     +0.57977105     +0.52491175

 +/-0.0000321      Node   298.17777     -0.78999897     +0.17495986

e   1.0022755      Incl.   44.98701     -0.19941704     +0.83298062

From 247 observations 2008 May 14-July 27, mean residual 0".63.

   (1/a)org.= +0.000004, (1/a)fut.= -0.000501 (+/-0.000032), Q= 5.



NAKANO

         **** Don't distribute anyone except personal use only ****

                (C) Copyright 2008 OAA/ComputingSection

write mail from CFAD0::NAKANO on 2008-08-02 06:17:22(JST).

 

    C/2008 J6 (Hill)

T 2008 Apr. 10.85395 TT                                 Nakano

q   2.0025684            (2000.0)            P               Q

                   Peri.   10.66089     +0.57919023     +0.52551497

                   Node   298.16257     -0.79025579     +0.17431615

e   1.0            Incl.   44.98178     -0.20008616     +0.83273519

From 130 observations 2008 May 14-June 23.



NAKANO

         **** Don't distribute anyone except personal use only ****

                (C) Copyright 2008 OAA/ComputingSection

write mail from CFAD0::NAKANO on 2008-07-01 07:43:53(JST).

 



    C/2008 J6 (Hill)

T 2008 Apr. 11.21665 TT                                 Nakano

q   2.0048580            (2000.0)            P               Q

                   Peri.   10.84291     +0.58140478     +0.52293067

                   Node   298.20662     -0.78935343     +0.17685366

e   1.0            Incl.   45.01566     -0.19720456     +0.83382630

From 54 observations 2008 May 14-26.





NAKANO

         **** Don't distribute anyone except personal use only ****

                (C) Copyright 2008 OAA/ComputingSection

write mail from CFAD0::NAKANO on 2008-05-30 05:17:26(JST).

◎C/2008 J6の軌道と予報位置



 この彗星については,守山の井狩康一氏が5月14日に観測したところ,天体は

彗星状であるとの報告がありました(cf. IAUC 8945).その後の追跡観測が,

上尾の門田健一氏(5月15日),八束の安部裕史氏(5月16日)から報告されて

います.門田氏のCCD全光度は15.3等でした.



    C/2008 J6 (Hill)

T 2008 Apr. 12.86694 TT                                 Nakano

q   2.0133451            (2000.0)            P               Q

                   Peri.   11.66208     +0.59060461     +0.51202790

                   Node   298.35360     -0.78559799     +0.18815819

e   1.0            Incl.   45.13200     -0.18445053     +0.83810734

From 22 observations 2008 May 14-16.

 

Date/        TT  R.A.(2000) Decl.     Delta   r     Daily motion  Mag.  Moon Age

              h    h  m       。  ,                      ,  / PA 。  m1      。

2008 May  15 18  22 45.49  +11 28.8   2.187  2.052    36.4 /  29  15.3  156  .83

          16 18  22 46.68  +12 00.6   2.180  2.055    36.3 /  28  15.3  146  .90

          17 18  22 47.87  +12 32.5   2.173  2.057    36.3 /  28  15.3  136  .95

          18 18  22 49.04  +13 04.5   2.166  2.060    36.2 /  28  15.3  125  .98

          19 18  22 50.19  +13 36.6   2.160  2.062    36.2 /  27  15.3  114 1.00

          20 18  22 51.34  +14 08.7   2.153  2.065    36.1 /  27  15.3  104  .99

          21 18  22 52.47  +14 40.9   2.147  2.068    36.1 /  27  15.3   93  .97

          22 18  22 53.59  +15 13.2   2.140  2.070    36.0 /  26  15.3   82  .94

          23 18  22 54.69  +15 45.5   2.134  2.073    36.0 /  26  15.3   71  .88

          24 18  22 55.78  +16 17.8   2.128  2.076    35.9 /  26  15.3   60  .81

          25 18  22 56.86  +16 50.2   2.122  2.079    35.8 /  25  15.3   50  .73

          26 18  22 57.92  +17 22.7   2.116  2.082    35.8 /  25  15.3   39  .64

          27 18  22 58.97  +17 55.2   2.110  2.085    35.7 /  24  15.3   30  .54

          28 18  23 00.00  +18 27.7   2.104  2.088    35.6 /  24  15.3   22  .43

          29 18  23 01.02  +19 00.3   2.099  2.091    35.6 /  24  15.3   21  .33

          30 18  23 02.03  +19 32.8   2.093  2.095    35.5 /  23  15.3   26  .23

          31 18  23 03.02  +20 05.5   2.088  2.098    35.4 /  23  15.3   36  .14

     June  1 18  23 03.99  +20 38.1   2.082  2.102    35.3 /  22  15.3   49  .07

NAKANO

         **** Don't distribute anyone except personal use only ****

                (C) Copyright 2008 OAA/ComputingSection

write mail from CFAD0::NAKANO on 2008-05-17 06:19:48(JST).

 

◎C/2008 J6の軌道と予報位置



 この彗星については,守山の井狩康一氏が5月14日に観測したところ,天体は

彗星状であるとの報告がありました(cf. IAUC 8945).その後の追跡観測が,

上尾の門田健一氏(5月15日),八束の安部裕史氏(5月16日)から報告されて

います.門田氏のCCD全光度は15.3等でした.



    C/2008 J6 (Hill)

T 2008 Apr. 12.86694 TT                                 Nakano

q   2.0133451            (2000.0)            P               Q

                   Peri.   11.66208     +0.59060461     +0.51202790

                   Node   298.35360     -0.78559799     +0.18815819

e   1.0            Incl.   45.13200     -0.18445053     +0.83810734

From 22 observations 2008 May 14-16.

                  

 

Date/        TT  R.A.(2000) Decl.     Delta   r     Daily motion  Mag.  Moon Age

              h    h  m       。  ,                      ,  / PA 。  m1      。

2008 May  15 18  22 45.49  +11 28.8   2.187  2.052    36.4 /  29  15.3  156  .83

          16 18  22 46.68  +12 00.6   2.180  2.055    36.3 /  28  15.3  146  .90

          17 18  22 47.87  +12 32.5   2.173  2.057    36.3 /  28  15.3  136  .95

          18 18  22 49.04  +13 04.5   2.166  2.060    36.2 /  28  15.3  125  .98

          19 18  22 50.19  +13 36.6   2.160  2.062    36.2 /  27  15.3  114 1.00

          20 18  22 51.34  +14 08.7   2.153  2.065    36.1 /  27  15.3  104  .99

          21 18  22 52.47  +14 40.9   2.147  2.068    36.1 /  27  15.3   93  .97

          22 18  22 53.59  +15 13.2   2.140  2.070    36.0 /  26  15.3   82  .94

          23 18  22 54.69  +15 45.5   2.134  2.073    36.0 /  26  15.3   71  .88

          24 18  22 55.78  +16 17.8   2.128  2.076    35.9 /  26  15.3   60  .81

          25 18  22 56.86  +16 50.2   2.122  2.079    35.8 /  25  15.3   50  .73

          26 18  22 57.92  +17 22.7   2.116  2.082    35.8 /  25  15.3   39  .64

          27 18  22 58.97  +17 55.2   2.110  2.085    35.7 /  24  15.3   30  .54

          28 18  23 00.00  +18 27.7   2.104  2.088    35.6 /  24  15.3   22  .43

          29 18  23 01.02  +19 00.3   2.099  2.091    35.6 /  24  15.3   21  .33

          30 18  23 02.03  +19 32.8   2.093  2.095    35.5 /  23  15.3   26  .23

          31 18  23 03.02  +20 05.5   2.088  2.098    35.4 /  23  15.3   36  .14

     June  1 18  23 03.99  +20 38.1   2.082  2.102    35.3 /  22  15.3   49  .07

NAKANO

         **** Don't distribute anyone except personal use only ****

                (C) Copyright 2008 OAA/ComputingSection

write mail from CFAD0::NAKANO on 2008-05-17 06:19:48(JST).

 

戻ります。